Weather History for KLDM - October, 2013

Change the Weather History Date:

Thursday, October 17, 2013

  Actual Average Record
Temperature  
Mean Temperature 50 °F -  
Max Temperature 52 °F 58 °F 79 °F (1968)
Min Temperature 48 °F 40 °F 24 °F (2002)
Degree Days  
Heating Degree Days 15    
Moisture  
Dew Point 44 °F    
Average Humidity 81    
Maximum Humidity 91    
Minimum Humidity 58    
Precipitation  
Precipitation 0.13 in - - ()
Sea Level Pressure  
Sea Level Pressure 29.83 in    
Wind  
Wind Speed 1 mph (WNW)    
Max Wind Speed 9 mph    
Max Gust Speed 16 mph    
Visibility 9 miles    
Events Rain    
Averages and records for this station are not official NWS values.
T = Trace of Precipitation, MM = Missing Value Source: NWS Daily Summary

Daily Weather History Graph

Daily Weather History Graph

Search for Another Location

Airport or City:

Trip Planner

Search our weather history database for the weather conditions in past years. The results will help you decide how hot, cold, wet, or windy it might be!

Date:

Astronomy

Oct. 17, 2013 Rise Set
Actual Time 8:02 AM EDT 6:58 PM EDT
Civil Twilight 7:33 AM EDT 7:27 PM EDT
Nautical Twilight 7:00 AM EDT 8:00 PM EDT
Astronomical Twilight 6:26 AM EDT 8:34 PM EDT
Moon 6:13 PM EDT (10/17) 6:32 AM EDT (10/17)
Length of Visible Light 11h 53m
Length of Day
10h 55m
Waxing Gibbous, 98% of the Moon is Illuminated
Oct 17
Waxing Gibbous
Oct 18
Full
Oct 26
Last Quarter
Nov 3
New
Nov 10
First Quarter

Hourly Weather History & Observations

Time (EDT) Temp. Dew Point Humidity Pressure Visibility Wind Dir Wind Speed Gust Speed Precip Events Conditions
12:15 AM 50.9 °F 47.8 °F 89% 29.89 in 10.0 mi Calm Calm - N/A Rain Light Rain
12:34 AM 50.9 °F 47.7 °F 89% 29.89 in 10.0 mi NNW 4.6 mph - 0.01 in Rain Light Rain
12:55 AM 50.9 °F 47.7 °F 89% 29.89 in 10.0 mi Calm Calm - 0.01 in   Light Drizzle
1:15 AM 50.9 °F 48.2 °F 90% 29.89 in 10.0 mi Calm Calm - N/A   Overcast
1:35 AM 50.9 °F 48.2 °F 90% 29.89 in 10.0 mi Calm Calm - N/A   Overcast
1:55 AM 50.9 °F 48.2 °F 90% 29.89 in 10.0 mi Calm Calm - N/A Rain Light Rain
2:15 AM 50.9 °F 48.2 °F 90% 29.89 in 10.0 mi Calm Calm - N/A Rain Rain
2:35 AM 50.9 °F 48.2 °F 90% 29.89 in 10.0 mi Calm Calm - N/A Rain Rain
2:55 AM 50.9 °F 48.0 °F 90% 29.88 in 10.0 mi Calm Calm - N/A Rain Light Rain
3:15 AM 50.9 °F 48.2 °F 90% 29.88 in 10.0 mi Calm Calm - N/A   Overcast
3:35 AM 48.4 °F 45.7 °F 90% 29.87 in 10.0 mi Calm Calm - N/A   Overcast
3:55 AM 48.4 °F 45.7 °F 90% 29.87 in 10.0 mi Calm Calm - N/A   Overcast
4:15 AM 50.9 °F 48.4 °F 91% 29.87 in 10.0 mi Calm Calm - N/A   Overcast
4:35 AM 48.4 °F 45.9 °F 91% 29.87 in 10.0 mi Calm Calm - N/A   Overcast
4:55 AM 48.4 °F 45.9 °F 91% 29.87 in 10.0 mi Calm Calm - N/A   Overcast
5:15 AM 48.4 °F 45.7 °F 90% 29.87 in 10.0 mi Calm Calm - N/A Rain Light Rain
5:35 AM 48.4 °F 45.5 °F 90% 29.87 in 7.0 mi Calm Calm - 0.01 in Rain Light Rain
5:55 AM 50.9 °F 48.2 °F 90% 29.87 in 5.0 mi Calm Calm - 0.01 in Rain Light Rain
6:15 AM 48.4 °F 45.5 °F 90% 29.87 in 7.0 mi Calm Calm - 0.01 in Rain Rain
6:35 AM 48.4 °F 45.7 °F 90% 29.87 in 7.0 mi Calm Calm - 0.01 in   Overcast
6:55 AM 48.4 °F 45.7 °F 90% 29.87 in 10.0 mi Calm Calm - 0.01 in   Overcast
7:15 AM 48.4 °F 45.7 °F 90% 29.88 in 7.0 mi Calm Calm - 0.01 in Rain Light Rain
7:35 AM 48.4 °F 45.5 °F 90% 29.87 in 7.0 mi Calm Calm - 0.01 in   Overcast
7:55 AM 48.4 °F 45.5 °F 90% 29.87 in 10.0 mi Calm Calm - 0.01 in Rain Rain
8:15 AM 48.4 °F 45.5 °F 90% 29.87 in 5.0 mi Calm Calm - N/A Rain Light Rain
8:35 AM 48.4 °F 45.5 °F 90% 29.87 in 5.0 mi Calm Calm - 0.01 in Rain Light Rain
8:55 AM 48.4 °F 45.5 °F 90% 29.87 in 7.0 mi Calm Calm - 0.01 in Rain Light Rain
9:15 AM 48.4 °F 45.5 °F 90% 29.87 in 7.0 mi Calm Calm - N/A Rain Light Rain
9:35 AM 48.4 °F 45.1 °F 89% 29.86 in 10.0 mi Calm Calm - 0.01 in   Overcast
9:55 AM 49.5 °F 46.0 °F 88% 29.87 in 10.0 mi Calm Calm - 0.01 in   Overcast
10:15 AM 49.3 °F 45.7 °F 87% 29.87 in 10.0 mi Calm Calm - N/A   Overcast
10:35 AM 50.9 °F 47.3 °F 87% 29.86 in 10.0 mi Calm Calm - N/A   Overcast
10:55 AM 50.9 °F 47.1 °F 87% 29.86 in 10.0 mi Calm Calm - N/A Rain Light Rain
11:15 AM 50.9 °F 47.3 °F 87% 29.85 in 10.0 mi Calm Calm - 0.01 in Rain Light Rain
11:35 AM 50.7 °F 46.9 °F 87% 29.85 in 10.0 mi Calm Calm - 0.01 in Rain Rain
11:55 AM 50.9 °F 46.9 °F 86% 29.84 in 7.0 mi Calm Calm - 0.01 in Rain Rain
12:14 PM 50.9 °F 47.1 °F 87% 29.84 in 10.0 mi Calm Calm - 0.01 in Rain Light Rain
12:35 PM 50.9 °F 46.4 °F 85% 29.84 in 10.0 mi Calm Calm - 0.02 in Rain Light Rain
12:55 PM 50.9 °F 46.2 °F 84% 29.83 in 10.0 mi Calm Calm - 0.02 in Rain Rain
1:14 PM 50.9 °F 46.0 °F 83% 29.82 in 10.0 mi NNW 3.5 mph - 0.01 in Rain Rain
1:35 PM 50.9 °F 46.4 °F 85% 29.82 in 10.0 mi NW 3.5 mph - 0.01 in   Drizzle
1:55 PM 50.9 °F 45.5 °F 82% 29.81 in 10.0 mi Calm Calm - 0.02 in Rain Rain
2:15 PM 50.9 °F 45.7 °F 82% 29.80 in 7.0 mi Calm Calm - N/A Rain Light Rain
2:35 PM 50.9 °F 46.4 °F 85% 29.79 in 10.0 mi Calm Calm - 0.01 in Rain Light Rain
2:55 PM 50.9 °F 46.4 °F 85% 29.79 in 10.0 mi Calm Calm - 0.01 in Rain Light Rain
3:15 PM 50.9 °F 45.9 °F 83% 29.78 in 10.0 mi Calm Calm - N/A   Overcast
3:35 PM 50.9 °F 45.7 °F 82% 29.78 in 10.0 mi Calm Calm - 0.01 in   Overcast
3:55 PM 50.9 °F 45.1 °F 81% 29.77 in 10.0 mi Calm Calm - 0.01 in   Overcast
4:15 PM 50.9 °F 46.2 °F 84% 29.77 in 10.0 mi North 3.5 mph - N/A   Overcast
4:35 PM 50.9 °F 45.0 °F 80% 29.77 in 10.0 mi Calm Calm - N/A   Overcast
4:55 PM 50.9 °F 42.3 °F 72% 29.77 in 10.0 mi WNW 4.6 mph - N/A   Overcast
5:15 PM 50.9 °F 42.3 °F 72% 29.77 in 10.0 mi West 4.6 mph - N/A   Mostly Cloudy
5:35 PM 50.9 °F 42.4 °F 73% 29.77 in 10.0 mi WNW 6.9 mph - N/A   Overcast
5:55 PM 50.9 °F 40.3 °F 67% 29.77 in 10.0 mi NW 5.8 mph - N/A   Overcast
6:15 PM 50.9 °F 39.9 °F 66% 29.78 in 10.0 mi WNW 4.6 mph - N/A   Mostly Cloudy
6:35 PM 48.4 °F 38.5 °F 69% 29.78 in 10.0 mi NW 3.5 mph - N/A   Clear
6:55 PM 48.4 °F 39.2 °F 71% 29.78 in 10.0 mi WNW 4.6 mph - N/A   Scattered Clouds
7:15 PM 48.4 °F 39.6 °F 72% 29.78 in 10.0 mi West 3.5 mph - N/A   Mostly Cloudy
7:35 PM 48.4 °F 39.4 °F 71% 29.79 in 10.0 mi Calm Calm - N/A   Scattered Clouds
7:55 PM 48.4 °F 39.2 °F 71% 29.79 in 10.0 mi WNW 3.5 mph - N/A   Clear
8:15 PM 50.9 °F 40.5 °F 67% 29.79 in 10.0 mi WNW 4.6 mph - N/A   Scattered Clouds
8:35 PM 50.9 °F 40.3 °F 67% 29.80 in 10.0 mi WNW 5.8 mph - N/A   Scattered Clouds
8:55 PM 50.9 °F 40.5 °F 67% 29.80 in 10.0 mi WNW 3.5 mph - N/A   Scattered Clouds
9:15 PM 50.9 °F 39.9 °F 66% 29.80 in 10.0 mi West 9.2 mph 16.1 mph N/A   Scattered Clouds
9:35 PM 50.9 °F 38.7 °F 63% 29.80 in 10.0 mi WNW 5.8 mph - N/A   Scattered Clouds
9:55 PM 50.9 °F 37.4 °F 60% 29.80 in 10.0 mi West 3.5 mph - N/A   Scattered Clouds
10:15 PM 50.9 °F 37.6 °F 60% 29.80 in 10.0 mi NW 8.1 mph - N/A   Scattered Clouds
10:35 PM 50.9 °F 37.2 °F 59% 29.80 in 10.0 mi WNW 4.6 mph - N/A   Scattered Clouds
10:55 PM 50.9 °F 38.3 °F 62% 29.81 in 10.0 mi West 4.6 mph - N/A   Scattered Clouds
11:15 PM 52.2 °F 38.3 °F 59% 29.81 in 10.0 mi West 6.9 mph - N/A   Mostly Cloudy
11:35 PM 52.3 °F 37.9 °F 58% 29.80 in 10.0 mi West 6.9 mph - N/A   Scattered Clouds
11:55 PM 51.4 °F 38.5 °F 61% 29.80 in 10.0 mi WNW 6.9 mph - N/A   Mostly Cloudy